Location: Jaite
(41.2884°N, 81.5737°W)
Time: 05:43:02
(UTC+00:00)

CENTAUR R/B - Pass Details

Date: 15 November 2025
Orbit: 633 x 1547 km, 63.4° (Epoch: 04 December)

Event Time Altitude Azimuth Distance (km) Brightness Sun altitude
Exits shadow 10:48:19 - 327° (NNW) 3,593 5.0 -16.3°
Reaches altitude 10° 10:49:05 10° 328° (NNW) 3,346 4.9 -16.2°
Maximum altitude 10:57:32 71° 53° (NE) 1,546 3.6 -14.6°
Drops below altitude 10° 11:06:59 10° 137° (SE) 3,720 6.4 -12.9°
Sets 11:10:05 0° 139° (SE) 4,696 7.0 -12.3°
